Time,TemperatureF,DewpointF,PressureIn,WindDirection,WindDirectionDegrees,WindSpeedMPH,WindSpeedGustMPH,Humidity,HourlyPrecipIn,Conditions,Clouds,dailyrainin,SoftwareType,DateUTC
2016-02-08 00:03:00,36.0,31.8,30.33,ESE,112,0.0,0.0,85,0.00,,,0.00,meteobridge,2016-02-08 08:03:00,
2016-02-08 00:08:00,36.0,32.2,30.33,ESE,112,0.0,0.0,86,0.00,,,0.00,meteobridge,2016-02-08 08:08:00,
2016-02-08 00:13:00,36.0,32.2,30.33,ESE,112,0.0,0.0,86,0.00,,,0.00,meteobridge,2016-02-08 08:13:00,
2016-02-08 00:18:00,35.8,32.0,30.33,ESE,112,0.0,0.0,86,0.00,,,0.00,meteobridge,2016-02-08 08:18:00,
2016-02-08 00:23:00,35.8,32.0,30.33,ESE,112,0.0,0.0,86,0.00,,,0.00,meteobridge,2016-02-08 08:23:00,
2016-02-08 00:28:00,35.6,31.8,30.33,ESE,112,0.0,0.0,86,0.00,,,0.00,meteobridge,2016-02-08 08:28:00,
2016-02-08 00:33:00,35.4,32.0,30.33,ESE,112,0.0,0.0,87,0.00,,,0.00,meteobridge,2016-02-08 08:33:00,
2016-02-08 00:39:00,35.4,32.0,30.33,ESE,112,0.0,0.0,87,0.00,,,0.00,meteobridge,2016-02-08 08:39:00,
2016-02-08 00:44:00,35.4,32.0,30.33,ESE,112,0.0,0.0,87,0.00,,,0.00,meteobridge,2016-02-08 08:44:00,
2016-02-08 00:49:00,35.2,31.8,30.33,ESE,112,0.0,0.0,87,0.00,,,0.00,meteobridge,2016-02-08 08:49:00,
2016-02-08 00:54:00,35.2,31.8,30.33,ESE,112,0.0,0.0,87,0.00,,,0.00,meteobridge,2016-02-08 08:54:00,
2016-02-08 00:59:00,35.1,31.6,30.33,ESE,112,0.0,0.0,87,0.00,,,0.00,meteobridge,2016-02-08 08:59:00,
2016-02-08 01:04:00,35.1,31.6,30.33,ESE,112,0.0,0.0,87,0.00,,,0.00,meteobridge,2016-02-08 09:04:00,
2016-02-08 01:09:00,34.9,31.5,30.33,ESE,112,0.0,0.0,87,0.00,,,0.00,meteobridge,2016-02-08 09:09:00,
2016-02-08 01:14:00,34.9,31.5,30.33,ESE,112,0.0,0.0,87,0.00,,,0.00,meteobridge,2016-02-08 09:14:00,
2016-02-08 01:19:00,34.9,31.5,30.36,ESE,112,0.0,0.0,87,0.00,,,0.00,meteobridge,2016-02-08 09:19:00,
2016-02-08 01:24:00,34.9,31.5,30.36,ESE,112,0.0,0.0,87,0.00,,,0.00,meteobridge,2016-02-08 09:24:00,
2016-02-08 01:29:00,34.7,31.5,30.36,ESE,112,0.0,0.0,88,0.00,,,0.00,meteobridge,2016-02-08 09:29:00,
2016-02-08 01:34:00,34.5,31.3,30.33,ESE,112,0.0,0.0,88,0.00,,,0.00,meteobridge,2016-02-08 09:34:00,
2016-02-08 01:39:00,34.5,31.3,30.33,ESE,112,0.0,0.0,88,0.00,,,0.00,meteobridge,2016-02-08 09:39:00,
2016-02-08 01:44:00,34.3,31.1,30.33,ESE,112,0.0,0.0,88,0.00,,,0.00,meteobridge,2016-02-08 09:44:00,
2016-02-08 01:49:00,34.3,31.1,30.33,ESE,112,0.0,0.0,88,0.00,,,0.00,meteobridge,2016-02-08 09:49:00,
2016-02-08 01:54:00,34.3,31.1,30.33,ESE,112,0.0,0.0,88,0.00,,,0.00,meteobridge,2016-02-08 09:54:00,
2016-02-08 01:59:00,34.3,31.1,30.33,ESE,112,0.0,0.0,88,0.00,,,0.00,meteobridge,2016-02-08 09:59:00,
2016-02-08 02:04:00,34.3,31.1,30.30,ESE,112,0.0,0.0,88,0.00,,,0.00,meteobridge,2016-02-08 10:04:00,
2016-02-08 02:09:00,34.2,30.9,30.30,ESE,112,0.0,0.0,88,0.00,,,0.00,meteobridge,2016-02-08 10:09:00,
2016-02-08 02:14:00,34.2,30.9,30.30,ESE,112,0.0,0.0,88,0.00,,,0.00,meteobridge,2016-02-08 10:14:00,
2016-02-08 02:19:00,34.0,30.7,30.33,ESE,112,0.0,0.0,88,0.00,,,0.00,meteobridge,2016-02-08 10:19:00,
2016-02-08 02:24:00,34.0,30.7,30.33,ESE,112,0.0,0.0,88,0.00,,,0.00,meteobridge,2016-02-08 10:24:00,
2016-02-08 02:29:00,34.0,30.7,30.33,ESE,112,0.0,0.0,88,0.00,,,0.00,meteobridge,2016-02-08 10:29:00,
2016-02-08 02:34:00,34.0,31.1,30.33,ESE,112,0.0,0.0,89,0.00,,,0.00,meteobridge,2016-02-08 10:34:00,
2016-02-08 02:39:00,33.8,30.6,30.33,ESE,112,0.0,0.0,88,0.00,,,0.00,meteobridge,2016-02-08 10:39:00,
2016-02-08 02:44:00,34.0,30.7,30.33,ESE,112,0.0,0.0,88,0.00,,,0.00,meteobridge,2016-02-08 10:44:00,
2016-02-08 02:49:00,34.0,31.1,30.30,ESE,112,0.0,0.0,89,0.00,,,0.00,meteobridge,2016-02-08 10:49:00,
2016-02-08 02:54:00,33.8,30.6,30.30,ESE,112,0.0,0.0,88,0.00,,,0.00,meteobridge,2016-02-08 10:54:00,
2016-02-08 02:59:00,33.8,30.9,30.30,ESE,112,0.0,0.0,89,0.00,,,0.00,meteobridge,2016-02-08 10:59:00,
2016-02-08 03:04:00,33.6,30.7,30.30,ESE,112,0.0,0.0,89,0.00,,,0.00,meteobridge,2016-02-08 11:04:00,
2016-02-08 03:09:00,33.6,30.7,30.30,ESE,112,0.0,0.0,89,0.00,,,0.00,meteobridge,2016-02-08 11:09:00,
2016-02-08 03:19:00,33.4,30.6,30.30,ESE,112,0.0,0.0,89,0.00,,,0.00,meteobridge,2016-02-08 11:19:00,
2016-02-08 03:24:00,33.3,30.4,30.30,ESE,112,0.0,0.0,89,0.00,,,0.00,meteobridge,2016-02-08 11:24:00,
2016-02-08 03:29:00,33.4,30.6,30.30,ESE,112,0.0,0.0,89,0.00,,,0.00,meteobridge,2016-02-08 11:29:00,
2016-02-08 03:44:00,33.4,30.7,30.30,ESE,112,0.0,0.0,90,0.00,,,0.00,meteobridge,2016-02-08 11:44:00,
2016-02-08 03:49:00,33.3,30.6,30.30,ESE,112,0.0,0.0,90,0.00,,,0.00,meteobridge,2016-02-08 11:49:00,
2016-02-08 03:54:00,33.3,30.6,30.30,ESE,112,0.0,0.0,90,0.00,,,0.00,meteobridge,2016-02-08 11:54:00,
2016-02-08 03:59:00,33.3,30.6,30.30,ESE,112,0.0,0.0,90,0.00,,,0.00,meteobridge,2016-02-08 11:59:00,
2016-02-08 04:04:00,33.1,30.4,30.30,ESE,112,0.0,0.0,90,0.00,,,0.00,meteobridge,2016-02-08 12:04:00,
2016-02-08 04:09:00,33.1,30.4,30.30,ESE,112,0.0,0.0,90,0.00,,,0.00,meteobridge,2016-02-08 12:09:00,
2016-02-08 04:14:00,33.1,30.2,30.30,ESE,112,0.0,0.0,89,0.00,,,0.00,meteobridge,2016-02-08 12:14:00,
2016-02-08 04:19:00,33.1,30.4,30.30,ESE,112,0.0,0.0,90,0.00,,,0.00,meteobridge,2016-02-08 12:19:00,
2016-02-08 04:24:00,33.1,30.4,30.30,ESE,112,0.0,0.0,90,0.00,,,0.00,meteobridge,2016-02-08 12:24:00,
2016-02-08 04:29:00,33.1,30.4,30.30,ESE,112,0.0,0.0,90,0.00,,,0.00,meteobridge,2016-02-08 12:29:00,
2016-02-08 04:34:00,33.1,30.4,30.30,ESE,112,0.0,0.0,90,0.00,,,0.00,meteobridge,2016-02-08 12:34:00,
2016-02-08 04:41:00,33.1,30.4,30.30,ESE,112,0.0,0.0,90,0.00,,,0.00,meteobridge,2016-02-08 12:41:00,
2016-02-08 04:46:00,32.7,30.2,30.30,ESE,112,0.0,0.0,90,0.00,,,0.00,meteobridge,2016-02-08 12:46:00,
2016-02-08 04:51:00,32.7,30.2,30.30,ESE,112,0.0,0.0,90,0.00,,,0.00,meteobridge,2016-02-08 12:51:00,
2016-02-08 04:56:00,32.7,30.2,30.30,ESE,112,0.0,0.0,90,0.00,,,0.00,meteobridge,2016-02-08 12:56:00,
2016-02-08 05:01:00,32.7,30.4,30.30,ESE,112,0.0,0.0,91,0.00,,,0.00,meteobridge,2016-02-08 13:01:00,
2016-02-08 05:06:00,32.7,30.4,30.30,ESE,112,0.0,0.0,91,0.00,,,0.00,meteobridge,2016-02-08 13:06:00,
2016-02-08 05:11:00,32.7,30.4,30.30,ESE,112,0.0,0.0,91,0.00,,,0.00,meteobridge,2016-02-08 13:11:00,
2016-02-08 05:16:00,32.7,30.4,30.30,ESE,112,0.0,0.0,91,0.00,,,0.00,meteobridge,2016-02-08 13:16:00,
2016-02-08 05:21:00,32.7,30.7,30.30,ESE,112,0.0,0.0,92,0.00,,,0.00,meteobridge,2016-02-08 13:21:00,
2016-02-08 05:27:00,32.9,30.9,30.30,ESE,112,0.0,0.0,92,0.00,,,0.00,meteobridge,2016-02-08 13:27:00,
2016-02-08 05:32:00,32.7,30.7,30.30,ESE,112,0.0,0.0,92,0.00,,,0.00,meteobridge,2016-02-08 13:32:00,
2016-02-08 05:37:00,32.7,30.4,30.30,ESE,112,0.0,0.0,91,0.00,,,0.00,meteobridge,2016-02-08 13:37:00,
2016-02-08 05:42:00,32.7,30.4,30.30,ESE,112,0.0,0.0,91,0.00,,,0.00,meteobridge,2016-02-08 13:42:00,
2016-02-08 05:47:00,32.7,30.4,30.30,ESE,112,0.0,0.0,91,0.00,,,0.00,meteobridge,2016-02-08 13:47:00,
2016-02-08 05:52:00,32.5,30.2,30.30,ESE,112,0.0,0.0,91,0.00,,,0.00,meteobridge,2016-02-08 13:52:00,
2016-02-08 05:57:00,32.5,30.0,30.30,ESE,112,0.0,0.0,90,0.00,,,0.00,meteobridge,2016-02-08 13:57:00,
2016-02-08 06:02:00,32.5,30.0,30.30,ESE,112,0.0,0.0,90,0.00,,,0.00,meteobridge,2016-02-08 14:02:00,
2016-02-08 06:07:00,32.4,29.8,30.30,ESE,112,0.0,0.0,90,0.00,,,0.00,meteobridge,2016-02-08 14:07:00,
2016-02-08 06:12:00,32.4,29.8,30.30,ESE,112,0.0,0.0,90,0.00,,,0.00,meteobridge,2016-02-08 14:12:00,
2016-02-08 06:17:00,32.2,29.7,30.27,ESE,112,0.0,0.0,90,0.00,,,0.00,meteobridge,2016-02-08 14:17:00,
2016-02-08 06:22:00,32.2,29.7,30.27,ESE,112,0.0,0.0,90,0.00,,,0.00,meteobridge,2016-02-08 14:22:00,
2016-02-08 06:27:00,32.2,29.8,30.27,ESE,112,0.0,0.0,91,0.00,,,0.00,meteobridge,2016-02-08 14:27:00,
2016-02-08 06:37:00,31.8,29.5,30.30,ESE,112,0.0,0.0,91,0.00,,,0.00,meteobridge,2016-02-08 14:37:00,
2016-02-08 06:42:00,31.8,29.5,30.30,ESE,112,0.0,0.0,91,0.00,,,0.00,meteobridge,2016-02-08 14:42:00,
2016-02-08 06:47:00,31.6,29.3,30.30,ESE,112,0.0,0.0,91,0.00,,,0.00,meteobridge,2016-02-08 14:47:00,
2016-02-08 06:52:00,31.6,29.3,30.30,ESE,112,0.0,0.0,91,0.00,,,0.00,meteobridge,2016-02-08 14:52:00,
2016-02-08 06:57:00,31.6,29.3,30.30,NE,45,0.0,0.0,91,0.00,,,0.00,meteobridge,2016-02-08 14:57:00,
2016-02-08 07:02:00,31.5,29.1,30.27,ENE,68,0.0,0.0,91,0.00,,,0.00,meteobridge,2016-02-08 15:02:00,
2016-02-08 07:07:00,31.3,28.9,30.27,ENE,68,0.0,0.0,91,0.00,,,0.00,meteobridge,2016-02-08 15:07:00,
2016-02-08 07:12:00,31.3,28.9,30.27,ENE,68,0.0,0.0,91,0.00,,,0.00,meteobridge,2016-02-08 15:12:00,
2016-02-08 07:17:00,31.1,28.8,30.30,ENE,68,0.0,0.0,91,0.00,,,0.00,meteobridge,2016-02-08 15:17:00,
2016-02-08 07:22:00,31.1,28.8,30.30,NNE,22,0.0,0.0,91,0.00,,,0.00,meteobridge,2016-02-08 15:22:00,
2016-02-08 07:27:00,31.1,28.8,30.30,NNE,22,0.0,0.0,91,0.00,,,0.00,meteobridge,2016-02-08 15:27:00,
2016-02-08 07:32:00,31.1,28.6,30.30,NNE,22,0.0,0.0,90,0.00,,,0.00,meteobridge,2016-02-08 15:32:00,
2016-02-08 07:37:00,31.1,28.6,30.30,NNE,22,0.0,0.0,90,0.00,,,0.00,meteobridge,2016-02-08 15:37:00,
2016-02-08 07:42:00,31.1,28.8,30.30,NNE,22,0.0,0.0,91,0.00,,,0.00,meteobridge,2016-02-08 15:42:00,